EW5580 Weather Reports


time (UTC)temp
C
wind
direction
speed
KPH
gust
KPH
rain 1hr
cm
rain 24hr
cm
rain mn
cm
humidity
%
barometer
mb
20260503024538 9 336 0.0 0.0 0.00 0.10 0.10 93 1008.9
20260503023039 9 336 0.0 1.6 0.00 0.10 0.10 93 1009.0
20260503021549 9 336 0.0 4.8 0.00 0.10 0.10 93 1009.0
20260503020047 9 290 0.0 0.0 0.00 0.10 0.10 92 1008.9
20260503014536 9 290 0.0 0.0 0.00 0.10 0.10 92 1009.1
20260503013036 9 290 0.0 0.0 0.00 0.10 0.10 92 1009.2
20260503011537 9 290 0.0 0.0 0.00 0.10 0.10 92 1009.1
20260503010036 9 290 0.0 0.0 0.00 0.10 0.10 91 1009.0
20260503004541 9 290 0.0 0.0 0.00 0.10 0.10 91 1008.8
20260503003049 10 290 0.0 0.0 0.00 0.10 0.10 90 1008.8
20260503001536 10 290 0.0 0.0 0.00 0.10 0.10 89 1008.8
20260503000034 10 290 0.0 0.0 0.00 0.10 0.10 89 1008.8
20260502234532 10 290 0.0 0.0 0.00 0.10 0.10 88 1008.7
20260502233032 10 290 0.0 0.0 0.00 0.10 0.10 88 1008.7
20260502231532 10 290 0.0 0.0 0.00 0.10 0.10 88 1008.7
20260502230031 10 290 0.0 0.0 0.00 0.10 0.10 88 1008.7
20260502224535 10 290 0.0 0.0 0.00 0.10 0.10 87 1008.5
20260502223031 10 290 0.0 3.2 0.00 0.10 0.10 86 1008.7
20260502221531 10 291 1.6 8.0 0.00 0.10 0.10 84 1008.8
20260502220034 11 313 1.6 4.8 0.00 0.10 0.10 83 1008.8
20260502214528 11 288 1.6 11.3 0.00 0.10 0.10 81 1008.7
20260502213036 12 248 4.8 11.3 0.00 0.10 0.10 79 1008.7
20260502211528 12 228 1.6 8.0 0.00 0.10 0.10 76 1008.5
20260502210027 13 360 0.0 4.8 0.00 0.10 0.10 76 1008.4
20260502204534 12 360 1.6 8.0 0.00 0.10 0.10 75 1008.4
20260502203028 12 137 0.0 12.9 0.00 0.10 0.10 75 1008.6
20260502201526 12 360 3.2 14.5 0.00 0.10 0.10 73 1008.7
20260502200040 13 360 1.6 12.9 0.00 0.10 0.10 73 1008.6
20260502194520 12 360 1.6 8.0 0.03 0.10 0.10 73 1008.8
20260502193023 12 94 3.2 8.0 0.03 0.10 0.10 77 1009.0
20260502191517 12 360 3.2 12.9 0.03 0.10 0.10 82 1009.2
20260502190016 12 360 0.0 8.0 0.03 0.10 0.10 84 1009.4
20260502184520 12 360 4.8 9.7 0.00 0.08 0.08 83 1009.3
20260502183015 11 229 0.0 3.2 0.03 0.08 0.08 87 1009.2
20260502181519 11 276 0.0 4.8 0.03 0.08 0.08 87 1009.4
20260502163010 12 290 1.6 19.3 0.03 0.08 0.05 67 1009.9
20260502161510 12 271 0.0 3.2 0.00 0.05 0.03 69 1009.7
20260502151506 12 360 1.6 6.4 0.00 0.05 0.03 78 1010.5
20260502130103 10 258 0.0 4.8 0.03 0.05 0.03 85 1011.3
20260502123049 10 277 0.0 6.4 0.00 0.03 0.00 83 1011.4
20260502121557 10 269 0.0 4.8 0.00 0.03 0.00 84 1011.0
20260502114541 9 284 0.0 1.6 0.00 0.03 0.00 87 1010.5
20260502113054 8 360 0.0 0.0 0.00 0.03 0.00 89 1010.3
20260502111544 8 360 0.0 0.0 0.00 0.03 0.00 90 1010.5
20260502110042 8 360 0.0 0.0 0.00 0.03 0.00 91 1010.4
20260502104536 8 360 0.0 0.0 0.00 0.03 0.00 90 1010.2
20260502103058 8 360 0.0 0.0 0.00 0.03 0.00 91 1010.4
20260502101547 8 360 0.0 0.0 0.00 0.03 0.00 91 1010.1
20260502091530 8 360 0.0 1.6 0.00 0.03 0.00 89 1009.7
20260502071521 9 360 0.0 0.0 0.00 0.03 0.00 76 1010.0
20260502070020 10 360 0.0 0.0 0.00 0.03 0.00 76 1010.1
20260502064516 9 360 0.0 1.6 0.00 0.03 0.00 76 1010.1
20260502063016 8 360 0.0 4.8 0.00 0.03 0.00 78 1010.1
20260502061513 8 360 0.0 0.0 0.00 0.03 0.00 80 1009.9
20260502060011 8 360 0.0 0.0 0.00 0.03 0.00 79 1010.0
20260502054512 8 360 0.0 0.0 0.00 0.03 0.00 81 1010.1
20260502053008 8 360 0.0 0.0 0.00 0.03 0.00 78 1010.2
20260502051507 8 360 0.0 0.0 0.00 0.03 0.00 78 1010.1
20260502050006 8 360 0.0 0.0 0.00 0.03 0.00 78 1010.1
20260502044504 8 360 0.0 0.0 0.00 0.03 0.00 79 1010.1
20260502043003 7 360 0.0 0.0 0.00 0.03 0.00 79 1010.3
20260502041502 7 360 0.0 0.0 0.00 0.03 0.00 78 1010.2
20260502034559 7 360 0.0 0.0 0.00 0.03 0.03 79 1010.2
20260502033057 7 360 0.0 0.0 0.00 0.03 0.03 78 1010.3
20260502031556 7 360 0.0 0.0 0.00 0.03 0.03 77 1010.2
20260502030105 7 360 0.0 0.0 0.00 0.03 0.03 77 1010.0